Regional Weather Roundup
Issued by NWS

Home | Current Version | Previous Version | Text Only | Print | Product List | Glossary On
Versions: 1 2 3 4 5 6 7 8 9 10 11 12 13 14 15 16 17 18 19 20 21 22 23 24 25 26 27 28 29 30 31 32 33 34 35 36 37 38 39 40 41 42 43 44 45 46 47 48 49 50
947
ASUS43 KDMX 241806
RWRIA

WEATHER ROUNDUP FOR IOWA
NATIONAL WEATHER SERVICE DES MOINES IA
1200 PM CST TUE JAN 24 2017

NOTE: "FAIR" INDICATES FEW OR NO CLOUDS BELOW 12,000 FEET WITH NO
SIGNIFICANT WEATHER AND/OR OBSTRUCTIONS TO VISIBILITY.

* - THESE STATIONS ARE NOT NWS STATIONS...THUS NOT UNDER NWS
QUALITY CONTROL.  THEY ALSO DO NOT REPORT WEATHER SUCH
AS PRECIPITATION OR FOG.

IAZ001>003-012>014-020>022-031>034-043>046-241900-
   NORTHWEST IOWA

CITY           SKY/WX    TMP DP  RH WIND       PRES   REMARKS
CARROLL *      CLOUDY    32  32 100 E18       29.75F FOG     WCI  20
CHEROKEE *     LGT SNOW  31  31  99 E13       29.77F WCI  21
DENISON *      CLOUDY    32  30  93 E17G25    29.70F FOG     WCI  21
LE MARS *      SNOW      32  30  93 MISG      29.76F VSB 1/4
ORANGE CITY *  CLOUDY    30  30 100 SE13G18   29.76F WCI  20
SHELDON *      CLOUDY    30  30 100 E18       29.76F WCI  18
SIOUX CITY     LGT RAIN  33  31  92 E16       29.69F FOG     WCI  23
6HR MIN TEMP:  32; 6HR MAX TEMP:  33; 6HR PCP:  0.11;

SPENCER        CLOUDY    31  28  89 E13       29.79F WCI  21
6HR MIN TEMP:  31; 6HR MAX TEMP:  32;

STORM LAKE *   SNOW      30  30 100 E17       29.75F VSB 1/4 WCI  18
$$

IAZ055>058-069>071-079>083-090>094-241900-
   SOUTHWEST IOWA

CITY           SKY/WX    TMP DP  RH WIND       PRES   REMARKS
ATLANTIC *     CLOUDY    32  30  93 E21G30    29.68F FOG     WCI  20
AUDUBON *      CLOUDY    30  28  93 E16G23    29.72F FOG     WCI  19
CLARINDA *     PTSUNNY   36  32  87 E15G22    29.65F WCI  26
COUNCIL BLFS * PTSUNNY   32  32 100 E22G28    29.64F WCI  19
CRESTON *      CLOUDY    30  30 100 E20       29.69F FOG     WCI  18
HARLAN  *      CLOUDY    32  32 100 E21       29.72F WCI  20
LAMONI         CLOUDY    33  29  85 E16G22    29.71F WCI  23
6HR MIN TEMP:  29; 6HR MAX TEMP:  35;

RED OAK *      PTSUNNY   34  32  93 E17G28    29.65F WCI  23
SHENANDOAH *   MOSUNNY   36  32  87 NE15      29.65F WCI  26
$$

IAZ047>049-059>061-072>074-084-241900-
   CENTRAL IOWA

CITY           SKY/WX    TMP DP  RH WIND       PRES   REMARKS
AMES           CLOUDY    32  30  92 E12       29.80F WCI  23
6HR MIN TEMP:  32; 6HR MAX TEMP:  32;

ANKENY *       CLOUDY    32  30  93 E13G20    29.81F WCI  22
BOONE *        MIX PCPN  32  32 100 E13       29.78F WCI  22
CHARITON *     CLOUDY    30  30 100 E15G21    29.77F FOG     WCI  19
DES MOINES     CLOUDY    32  29  88 E12       29.80F FOG     WCI  23
6HR MIN TEMP:  32; 6HR MAX TEMP:  33;

GRINNELL*      CLOUDY    31  29  92 E13       29.82F FOG     WCI  21
KNOXVILLE *    MIX PCPN  32  30  93 SE9       29.80S WCI  24
MARSHALLTOWN   CLOUDY    32  29  88 SE12      29.81F WCI  23
6HR MIN TEMP:  32; 6HR MAX TEMP:  32;

NEWTON *       CLOUDY    32  30  93 E13       29.81F FOG     WCI  22
PELLA *        CLOUDY    31  30  96 MISG      29.84S FOG
PERRY *        CLOUDY    32  31  95 E15       29.78F FOG     WCI  22
$$

IAZ004>006-015-016-023>025-035-036-241900-
   NORTH CENTRAL IOWA

CITY           SKY/WX    TMP DP  RH WIND       PRES   REMARKS
ALGONA *       CLOUDY    32  30  93 E13       29.81F FOG     WCI  22
CLARION *      CLOUDY    32  32 100 SE12      29.82R WCI  23
ESTHERVILLE    CLOUDY    29  28  96 E16       29.80S WCI  17
6HR MIN TEMP:  29; 6HR MAX TEMP:  30;

FORT DODGE *   CLOUDY    30  27  86 E9        29.80F WCI  22
MASON CITY     CLOUDY    30  27  88 E10       29.82F WCI  21
6HR MIN TEMP:  30; 6HR MAX TEMP:  31;

FOREST CITY *  CLOUDY    32  30  93 E8        29.81S WCI  25
WEBSTER CITY * CLOUDY    32 N/A N/A SE12      29.79F WCI  23
IOWA FALLS *   CLOUDY    32  29  88 E12       29.82F WCI  23
$$

IAZ007>011-017>019-026>030-037>042-050>054-066-241900-
   NORTHEAST IOWA

CITY           SKY/WX    TMP DP  RH WIND       PRES   REMARKS
CEDAR RAPIDS   CLOUDY    31  28  89 SE8       29.83F FOG     WCI  23
6HR MIN TEMP:  31; 6HR MAX TEMP:  32;

CHARLES CITY * CLOUDY    32  32 100 E9        29.83F WCI  24
CLINTON *      CLOUDY    36  32  85 SE6       29.87F WCI  31
DECORAH *      CLOUDY    34  28  80 E7        29.81F WCI  28
DUBUQUE        CLOUDY    32  29  88 S5        29.85F WCI  27
6HR MIN TEMP:  32; 6HR MAX TEMP:  33;

MONTICELLO *   CLOUDY    32  28  86 SE7       29.85F WCI  26
OELWEIN *      CLOUDY    32  32 100 E12       29.83F WCI  23
WATERLOO       CLOUDY    33  28  81 E12       29.83F WCI  24
6HR MIN TEMP:  32; 6HR MAX TEMP:  33;

$$

IAZ064-065-067-068-078-241900-
   EAST CENTRAL IOWA

CITY           SKY/WX    TMP DP  RH WIND       PRES   REMARKS
DAVENPORT      CLOUDY    36  31  82 SE9       29.86F WCI  29
6HR MIN TEMP:  32; 6HR MAX TEMP:  36;

IOWA CITY      CLOUDY    34  29  82 E6        29.86F WCI  29
6HR MIN TEMP:  33; 6HR MAX TEMP:  34;

MUSCATINE *    CLOUDY    36  30  80 SE10      29.86F WCI  28
QUAD CITIES    CLOUDY    37  30  75 SE8       29.86F WCI  31
6HR MIN TEMP:  34; 6HR MAX TEMP:  37;

$$

IAZ062-063-075>077-085>089-095>099-241900-
   SOUTHEAST IOWA

CITY           SKY/WX    TMP DP  RH WIND       PRES   REMARKS
BURLINGTON     CLOUDY    35  31  85 SE7       29.84F WCI  29
6HR MIN TEMP:  32; 6HR MAX TEMP:  35;

FAIRFIELD *    CLOUDY    32  30  93 SE9       29.84F WCI  24
FORT MADISON * CLOUDY    36  34  93 E3        29.84F
KEOKUK *       CLOUDY    36 N/A N/A SE8       29.83F WCI  29
OSKALOOSA *    CLOUDY    31  30  96 SE12      29.83F FOG     WCI  22
CENTERVILLE *  CLOUDY    32  32 100 E10       29.79F WCI  24
OTTUMWA        CLOUDY    32  29  88 SE12      29.82F WCI  23
6HR MIN TEMP:  31; 6HR MAX TEMP:  32;

WASHINGTON *   CLOUDY    34  32  93 SE13G20   29.85F WCI  25
$$

ABBREVIATIONS USED IN REMARKS
   TC - TEMPERATURES IN CELSIUS
  WCI - WIND CHILL INDEX
   HX - HEAT INDEX
  VSB - VISIBILITY
$$





USA.gov is the U.S. government's official web portal to all federal, state and local government web resources and services.